Flag for Ukraine Weather past 2 weeks in Chernobyl, Ukraine

Now
36 °F

Chilly.


Feels Like: 29 °F
Forecast: 34 / 37 °F
Wind: 8 mph from Southwest

Location: Hostomel

Current Time: Dec 20, 2014 at 10:14:26 PM

Latest Report: Dec 20, 2014 at 9:00 PM


Visibility: N/A

Pressure: 29.83 "Hg

Humidity: 93%

Dew point: 34 °F

Location of ChernobylLocation

Historic Weather in Chernobyl — Graph

°F

Chernobyl temperature yesterday

Maximum temperature yesterday: 41 °F (at 1:30 PM)
Minimum temperature yesterday: 36 °F (at 12:00 AM)
Average temperature yesterday: 39 °F

Past Weeks' High & Low Weather Summary

 TemperatureHumidityPressure
High46 °F (Dec 20, 9:00 AM)100% (Dec 5, 9:00 PM)30.42 "Hg (Dec 5, 9:00 PM)
Low16 °F (Dec 5, 9:00 PM)70% (Dec 14, 12:00 PM)29.68 "Hg (Dec 20, 5:00 AM)
Average32 °F96%30.05 "Hg
* Reported Dec 5 9:00 PM — Dec 20 9:00 PM, Chernobyl, Weather by CustomWeather, © 2014

Note: Actual official high and low records may vary slightly from our data, if they occured in-between our weather recording intervals... More about our weather records

Advertising

Chernobyl weather history for previous 24 hours

 ConditionsComfort  
Time TempWeatherWind HumidityBarometerVisibility
9:00 PM
Dec 20
36 °FChilly.8 mph93%29.83 "HgN/A
8:00 PM37 °FChilly.10 mph93%29.83 "HgN/A
7:00 PM37 °FChilly.8 mph93%29.80 "HgN/A
6:00 PM37 °FChilly.10 mph100%29.83 "HgN/A
5:00 PM37 °FChilly.6 mph100%29.80 "HgN/A
4:00 PM41 °FQuite cool.8 mph93%29.80 "HgN/A
3:00 PM43 °FQuite cool.8 mph93%29.77 "HgN/A
2:00 PM46 °FCool.13 mph87%29.74 "HgN/A
1:00 PM46 °FCool.10 mph93%29.74 "HgN/A
12:00 PM46 °FCool.10 mph100%29.74 "HgN/A
11:00 AM46 °FCool.10 mph100%29.74 "HgN/A
10:00 AM46 °FCool.13 mph100%29.74 "HgN/A
9:00 AM46 °FCool.13 mph100%29.71 "HgN/A
8:00 AM45 °FQuite cool.13 mph100%29.68 "HgN/A
7:00 AM45 °FQuite cool.10 mph100%29.68 "Hg5 mi
6:00 AM45 °FQuite cool.10 mph100%29.68 "Hg4 mi
5:00 AM45 °FQuite cool.13 mph100%29.68 "Hg6 mi
4:00 AM45 °FQuite cool.13 mph100%29.71 "Hg4 mi
3:00 AM45 °FQuite cool.10 mph100%29.71 "Hg3 mi
2:00 AM45 °FQuite cool.10 mph100%29.74 "Hg3 mi
1:00 AM43 °FQuite cool.10 mph100%29.74 "Hg6 mi
12:00 AMN/A10 mphN/AN/A3 mi
11:00 PM
Dec 19
N/A8 mphN/AN/A2 mi
10:00 PMN/A10 mphN/AN/A3 mi
Weather by CustomWeather, © 2014

See weather overviewHow to use our weather pages